Home > Weather > Messina > Past weeks

Flag for Italy Past Weather in Messina, Italy — Yesterday and Last 2 Weeks

Now
72 °F

Sunny.


Feels Like: 76 °F
Forecast: 64 / 70 °F
Wind: 15 mph from North

Location: Reggio Calabria

Current Time: May 31, 2016 at 4:20:05 PM

Latest Report: May 31, 2016 at 3:50 PM


Visibility: 10 mi

Pressure: 30.07 "Hg

Humidity: 57%

Dew Point: 55 °F

Location of MessinaLocation

Past Weather in Messina — Graph

°F

Messina Temperature Yesterday

Maximum temperature yesterday: 77 °F (at 12:50 PM)
Minimum temperature yesterday: 68 °F (at 11:50 PM)
Average temperature yesterday: 74 °F

High & Low Weather Summary for the Past Weeks

 TemperatureHumidityPressure
High84 °F (May 29, 2:50 PM)100% (May 21, 10:50 PM)30.09 "Hg (May 21, 10:50 PM)
Low50 °F (May 21, 10:50 PM)22% (May 26, 2:50 PM)29.83 "Hg (May 20, 6:00 AM)
Average69 °F58%29.99 "Hg
* Reported May 16 2:50 PM — May 31 2:50 PM, Messina, Weather by CustomWeather, © 2016

Note: Actual official high and low records may vary slightly from our data, if they occured in-between our weather recording intervals... More about our weather records

Advertising

Messina Weather History for the Previous 24 Hours

Scroll right to see more
 ConditionsComfort  
Time TempWeatherWind HumidityBarometerVisibility
2:50 PM
Tue, May 31
73 °FSunny.17 mph50%30.04 "Hg10 mi
1:50 PM77 °FSunny.21 mph42%30.04 "Hg10 mi
12:50 PM75 °FSunny.21 mph41%30.04 "Hg10 mi
11:50 AM75 °FSunny.17 mph54%30.04 "Hg10 mi
10:50 AM75 °FSunny.18 mph57%30.04 "Hg10 mi
9:50 AM73 °FSunny.17 mph61%30.04 "Hg10 mi
8:50 AM72 °FSunny.15 mph65%30.04 "Hg10 mi
7:50 AM70 °FSunny.17 mph69%30.04 "Hg10 mi
6:50 AM70 °FSunny.13 mph64%30.01 "Hg10 mi
6:00 AM66 °FClear.12 mph78%30.01 "Hg10 mi
11:50 PM
Mon, May 30
68 °FClear.13 mph73%30.01 "Hg10 mi
10:50 PM70 °FClear.13 mph69%30.01 "Hg10 mi
9:50 PM70 °FClear.13 mph64%30.01 "Hg10 mi
8:50 PM70 °FSunny.18 mph69%29.98 "Hg10 mi
7:50 PM72 °FSunny.17 mph65%29.98 "Hg10 mi
6:50 PM73 °FSunny.20 mph57%29.98 "Hg10 mi
5:50 PM75 °FSunny.21 mph50%29.95 "Hg10 mi
4:50 PM75 °FSunny.16 mph50%29.95 "Hg10 mi
Weather by CustomWeather, © 2016

See weather overviewHow to use our weather pages